TimeEDT,TemperatureF,Dew PointF,Humidity,Sea Level PressureIn,VisibilityMPH,Wind Direction,Wind SpeedMPH,Gust SpeedMPH,PrecipitationIn,Events,Conditions,WindDirDegrees,DateUTC
12:56 AM,50.0,34.0,54,29.80,10.0,Calm,Calm,-,N/A,,Partly Cloudy,0,2013-03-21 04:56:00
1:56 AM,50.0,34.0,54,29.77,10.0,NW,3.5,-,N/A,,Clear,320,2013-03-21 05:56:00
2:56 AM,50.0,43.0,77,29.73,10.0,NW,6.9,-,N/A,,Clear,310,2013-03-21 06:56:00
3:56 AM,46.0,42.1,86,29.70,10.0,SSW,3.5,-,N/A,,Clear,210,2013-03-21 07:56:00
4:56 AM,44.1,39.9,85,29.69,-9999.0,Calm,Calm,-,N/A,,Clear,0,2013-03-21 08:56:00
5:56 AM,45.0,42.1,90,29.71,-9999.0,WNW,4.6,-,N/A,,Overcast,300,2013-03-21 09:56:00
6:56 AM,43.0,35.1,74,29.72,-9999.0,NW,9.2,-,N/A,,Overcast,310,2013-03-21 10:56:00
7:56 AM,46.0,36.0,68,29.71,-9999.0,NNW,11.5,-,N/A,,Clear,340,2013-03-21 11:56:00
8:56 AM,50.0,37.0,61,29.71,-9999.0,NNW,10.4,-,N/A,,Clear,340,2013-03-21 12:56:00
9:56 AM,48.9,34.0,56,29.70,-9999.0,NNW,13.8,-,N/A,,Clear,340,2013-03-21 13:56:00
10:56 AM,48.9,35.1,59,29.71,-9999.0,NNW,12.7,-,N/A,,Clear,330,2013-03-21 14:56:00
11:56 AM,51.1,35.1,54,29.71,-9999.0,NNW,13.8,-,N/A,,Clear,330,2013-03-21 15:56:00
12:56 PM,51.1,33.1,50,29.71,-9999.0,NNW,16.1,20.7,N/A,,Partly Cloudy,340,2013-03-21 16:56:00
1:56 PM,50.0,32.0,50,29.72,-9999.0,NNW,13.8,19.6,N/A,,Overcast,330,2013-03-21 17:56:00
2:56 PM,45.0,35.1,68,29.73,-9999.0,North,17.3,27.6,0.00,,Overcast,360,2013-03-21 18:56:00
3:56 PM,43.0,35.1,74,29.75,-9999.0,North,17.3,-,N/A,,Overcast,360,2013-03-21 19:56:00
4:29 PM,44.6,33.8,66,29.75,-9999.0,North,18.4,24.2,N/A,,Overcast,350,2013-03-21 20:29:00
4:37 PM,44.6,33.8,66,29.75,-9999.0,North,19.6,-,N/A,,Overcast,360,2013-03-21 20:37:00
4:56 PM,44.1,32.0,63,29.76,-9999.0,North,17.3,24.2,N/A,,Mostly Cloudy,350,2013-03-21 20:56:00
5:56 PM,44.1,30.9,60,29.79,-9999.0,NNW,15.0,-,N/A,,Scattered Clouds,330,2013-03-21 21:56:00
6:56 PM,44.1,30.0,58,29.82,-9999.0,NNW,11.5,-,N/A,,Unknown,340,2013-03-21 22:56:00
7:56 PM,43.0,27.0,53,29.85,-9999.0,NW,11.5,-,N/A,,Overcast,320,2013-03-21 23:56:00
8:56 PM,43.0,23.0,45,29.88,-9999.0,NW,12.7,-,N/A,,Clear,310,2013-03-22 00:56:00
9:56 PM,42.1,18.0,38,29.91,-9999.0,NNW,20.7,27.6,N/A,,Clear,330,2013-03-22 01:56:00
10:56 PM,41.0,17.1,38,29.94,-9999.0,NW,18.4,28.8,N/A,,Clear,320,2013-03-22 02:56:00
11:56 PM,39.0,16.0,39,29.95,-9999.0,NW,19.6,27.6,N/A,,Clear,320,2013-03-22 03:56:00